Weather in Kunbatar

Russia / Republic of Dagestan     44°17′34″N   45°35′09″E
temp.,
°C
wind,
m/s
gust,
m/s
humid.,
%
clouds,
%
prec.,
mm/h
press.,
hPa
HPBL,
m
13 may, thu
thu1300:00+14se35690 0.0 101485
03:00+12se33720 0.0 101436
06:00+13ese35680 0.0 1014166
09:00+19ese33490 0.0 1014624
12:00+24e44390 0.0 10141000
15:00+27e44340 0.0 10131258
18:00+23ene68500 0.0 1014401
21:00+17e47630 0.0 1015153
14 may, fri
fri1400:00+15ese34717 0.0 101481
03:00+14e33754 0.0 101446
06:00+15se23716 0.0 1014115
09:00+22ese234892 0.0 1014450
12:00+29ese68357 0.0 10131049
15:00+31ese1112250 0.0 10111323
18:00+25ese917370 0.0 1012699
21:00+20ese615400 0.0 1012423
15 may, sat
sat1500:00+20ese512400 0.0 1012286
03:00+18ese512360 0.0 1012254
06:00+18ese37430 0.0 1013233
09:00+24se22404 0.0 1013461
12:00+29s22375 0.0 10131079
15:00+31ese44315 0.0 10111667
18:00+27ese812250 0.0 1012422
21:00+21ese5113722 0.0 1013246
16 may, sun
sun1600:00+18e51043100 0.0 1012214
03:00+17ese4124796 0.0 1011266
06:00+18ese5155115 0.0 1011384
09:00+26ese813334 0.0 1010789
12:00+31ese1215185 0.0 10081857
15:00+31ese1316211 0.0 10071669
18:00+26ese1018320 0.0 1006872
21:00+21e920381 0.0 1007642
17 may, mon
mon1700:00+22ese1020337 0.0 1005657
03:00+20ese817395 0.0 1005474
06:00+20ese715446 0.0 1006506
09:00+26ese1014324 0.0 1006877
12:00+30ese1213221 0.0 10061366
15:00+30ese1214230 0.0 10051294
18:00+25ese916335 0.0 1006769
21:00+20e47435 0.0 1008127